Location: Bronnegerveen
(52.9548°N, 6.8388°E)
Time: 02:34:12
(UTC+00:00)

Cosmos 158 Rocket - Pass Details

Date: 15 June 2025
Orbit: 695 x 786 km, 74.0° (Epoch: 07 July)

Event Time Altitude Azimuth Distance (km) Brightness Sun altitude
Rises 00:46:07 0° 334° (NNW) 3,216 8.0 -12.1°
Reaches altitude 10° 00:48:32 10° 335° (NNW) 2,273 7.2 -12.0°
Maximum altitude 00:53:41 81° 63° (ENE) 747 4.0 -11.7°
Drops below altitude 10° 00:58:40 10° 151° (SSE) 2,198 6.0 -11.5°
Enters shadow 00:59:58 - 152° (SSE) 2,714 6.5 -11.4°
